This is the latest recevied weather packets stored in our database for station/object KC8YYF. If no packets are shown the sender has not sent any weather packets the latest 10 day(s).
| Time | Temp. | Humidity | Pressure | Rain* | Wind** | Luminosity | Snow |
|---|---|---|---|---|---|---|---|
| 1776996392 | 17.22° C | 75% | 1013.4 hPa | 0 mm | - | 0 W/m² | - |
| 1776996089 | 17.22° C | 78% | 1013.2 hPa | 0 mm | - | 0 W/m² | - |
| 1776995786 | 17.22° C | 78% | 1013.7 hPa | 0 mm | - | 0 W/m² | - |
| 1776995485 | 17.22° C | 81% | 1013.5 hPa | 0 mm | - | 0 W/m² | - |
| 1776995180 | 17.22° C | 81% | 1013.6 hPa | 0 mm | - | 0 W/m² | - |
| 1776994877 | 17.78° C | 79% | 1013.7 hPa | 0 mm | - | 0 W/m² | - |
| 1776994572 | 17.78° C | 78% | 1013.7 hPa | 0 mm | - | 0 W/m² | - |
| 1776994268 | 17.78° C | 79% | 1013.7 hPa | 0 mm | - | 0 W/m² | - |
| 1776993965 | 18.33° C | 76% | 1013.8 hPa | 0 mm | - | 0 W/m² | - |
| 1776993663 | 18.33° C | 75% | 1013.4 hPa | 0 mm | - | 0 W/m² | - |
| 1776993360 | 18.33° C | 74% | 1013.6 hPa | 0 mm | - | 0 W/m² | - |
| 1776993057 | 18.33° C | 74% | 1013.6 hPa | 0 mm | - | 0 W/m² | - |
| 1776992754 | 18.33° C | 74% | 1013.6 hPa | 0 mm | - | 0 W/m² | - |
| 1776992450 | 18.89° C | 74% | 1013.7 hPa | 0 mm | - | 0 W/m² | - |
| 1776992148 | 18.89° C | 73% | 1013.7 hPa | 0 mm | - | 0 W/m² | - |
| 1776991844 | 18.89° C | 71% | 1013.8 hPa | 0 mm | - | 0 W/m² | - |
| 1776991541 | 18.89° C | 73% | 1013.7 hPa | 0 mm | - | 0 W/m² | - |
| 1776991236 | 18.89° C | 75% | 1013.7 hPa | 0 mm | - | 0 W/m² | - |
| 1776990932 | 18.89° C | 76% | 1013.9 hPa | 0 mm | - | 0 W/m² | - |
| 1776990630 | 19.44° C | 75% | 1013.9 hPa | 0 mm | - | 0 W/m² | - |
| 1776990327 | 19.44° C | 71% | 1013.9 hPa | 0 mm | - | 0 W/m² | - |
| 1776990023 | 20° C | 71% | 1014 hPa | 0 mm | - | 0 W/m² | - |
| 1776989718 | 19.44° C | 72% | 1013.9 hPa | 0 mm | - | 0 W/m² | - |
| 1776989414 | 19.44° C | 76% | 1013.9 hPa | 0 mm | - | 0 W/m² | - |
| 1776989110 | 19.44° C | 75% | 1014.1 hPa | 0 mm | - | 0 W/m² | - |
* Rain latest hour (hover to see other rain measurements)
** Current wind speed in m/s (hover to see current wind gust speed)